{"data":{"norad_id":60436,"intl_designator":"2024-144M","name":"STARLINK-32229","alt_names":[],"object_type":"PAYLOAD","status":"ACTIVE","operator":null,"country":"US","launch_date":"2024-08-12","launch_site_code":"AFETR","launch_vehicle":null,"mission":null,"orbit_class":"UNKNOWN","rcs_meters":null,"size_class":null,"mass_kg":null,"dimensions":null,"purposes":["comms"],"wikipedia_slug":null,"has_3d_model":false,"image_url":null,"decayed_at":null,"tle_current":{"epoch":"2026-09-21T13:44:40.419456Z","epoch_age_seconds":95553,"freshness":"FRESH","line1":"1 60436U 24144M   26264.57269004  .00003870  00000+0  12560-3 0  9991","line2":"2 60436  53.1624  22.7457 0001175  64.9258 295.1867 15.34399875119369","mean_motion":15.34399875,"eccentricity":0.0001175,"inclination_deg":53.1624,"raan_deg":22.7457,"arg_perigee_deg":64.9258,"mean_anomaly_deg":295.1867,"bstar":0.0001256,"rev_number":11936,"period_min":93.847765726649,"perigee_km":461.89981296159,"apogee_km":463.50741050535,"semimajor_km":6840.8406117335,"source":"CELESTRAK","updated_at":"2026-09-22T09:00:49.235622Z"}}}